Retour au catalogue

SL-14 R/B

ActifPO
NORAD 22627·ROCKET BODY·🇷🇺 Russia

Lancé Apr 16, 1993 depuis Plesetsk Cosmodrome

Loading…

Prochains Passages (prochaines 24 heures)

TLE

FraisSource: Space-Track

Époque: Sep 14, 2026, 06:10 UTC

1 22627U 93024B   26257.25708664  .00000273  00000-0  32615-4 0  9990
2 22627  82.5230 202.0691 0024205  83.1144 277.2822 14.80196017801056

Suivez SL-14 R/B en temps réel avec AllMySat

Download on the App Store